Wind_Speed
28 30 36 37 38 32 27 27 23 22 19 17 20 21 18 14 14 16 16 16 16 13 11 11 12 12 13 14 13 11 10 10 12 10 9 7 6 9 13 16 16 16 14
21 26 29 31 27 25 23 20 21 20 20 19 20 20 15 15 18 17 18 17 15 13 12 12 10 11 11 11 10 9 7 7 10 12 10 11 13 12 14 14 14 13 12
21 22 24 24 24 20 20 20 18 19 18 21 21 17 17 19 19 17 15 13 12 12 11 11 11 12 13 12 11 11 7 5 7 10 14 14 16 13 13 12 13 13 13
24 27 27 26 21 19 19 19 21 21 20 19 19 21 21 19 17 15 12 12 11 11 13 11 12 13 14 12 12 12 9 6 6 12 16 15 15 15 15 15 16 15 15
31 31 29 23 21 21 23 21 21 20 21 22 21 20 19 16 14 11 9 8 9 10 13 14 14 13 13 12 13 13 10 9 11 16 16 15 17 16 17 17 17 16 16
27 27 25 24 25 26 24 25 25 26 24 23 20 18 19 17 13 11 9 7 8 11 15 17 16 14 13 13 13 11 8 9 15 17 19 20 19 18 18 18 20 20 19
23 25 25 28 29 28 29 29 30 29 23 16 19 19 17 14 11 10 10 11 12 12 13 13 13 14 14 15 16 12 9 8 10 12 16 18 19 19 19 19 20 22 22
24 28 29 30 33 34 32 30 28 23 17 21 19 16 15 12 11 12 12 11 10 10 10 10 13 14 17 15 16 14 13 12 11 12 10 8 13 15 16 19 21 20 21
31 34 33 29 30 30 30 29 25 20 22 19 17 13 10 11 11 10 9 9 9 8 9 10 12 15 13 14 15 14 15 15 14 14 11 8 12 13 15 19 22 22 24
41 33 31 31 31 27 25 24 25 24 20 19 14 11 9 8 10 9 9 9 10 9 11 11 11 12 11 12 11 13 14 15 16 16 15 15 14 13 14 15 19 23 25
38 36 32 29 26 24 27 25 23 23 19 15 11 10 9 9 9 9 9 8 7 9 12 13 14 12 12 12 9 8 9 12 13 14 17 18 16 16 16 18 19 20 23
35 33 29 26 26 28 27 26 22 18 15 13 12 11 9 9 10 9 8 8 7 10 15 16 13 12 11 11 9 7 7 10 12 15 17 17 16 16 17 16 16 15 17
34 31 31 27 29 27 27 24 20 16 15 14 12 10 11 10 10 8 8 10 11 11 12 11 10 14 13 13 11 10 8 8 13 16 17 16 15 15 16 17 16 16 14
33 34 29 28 29 25 23 19 18 17 16 14 10 11 10 9 8 9 10 11 12 14 14 13 16 14 13 13 12 11 10 8 10 15 15 15 16 17 16 16 16 15 13
32 31 30 29 25 26 22 19 17 17 12 10 8 6 6 10 8 11 10 10 11 11 14 18 18 15 14 14 13 12 10 9 10 11 13 14 15 15 15 13 12 14 14
32 31 31 29 28 24 22 20 17 14 10 7 4 2 5 11 12 11 10 10 11 14 16 19 16 11 13 15 14 12 10 10 12 10 14 14 14 13 14 16 13 15 16
29 29 28 28 25 24 22 20 20 17 13 10 7 5 7 14 14 13 12 14 15 16 16 13 13 12 13 13 10 8 10 12 13 13 15 14 14 13 12 14 13 13 13
24 26 28 24 21 20 20 20 18 18 18 17 11 11 13 15 15 17 17 16 14 13 11 11 10 10 13 11 10 10 9 11 12 12 14 15 14 11 9 12 12 12 12
22 25 23 18 16 18 19 20 20 18 22 20 17 17 19 19 20 19 16 15 15 15 14 13 10 9 11 11 9 9 8 8 11 13 14 15 14 12 11 10 9 8 8
20 18 16 17 18 17 16 19 23 24 23 19 19 22 26 24 23 18 15 12 12 12 10 9 9 10 10 9 9 9 8 9 11 13 14 15 13 11 10 9 8 7 7
19 16 17 16 19 19 20 22 25 25 22 21 21 23 25 23 21 16 13 11 9 9 8 6 11 11 11 9 8 9 10 10 10 12 14 12 12 12 9 8 10 13 15
19 16 16 17 20 19 19 19 22 22 20 21 21 23 23 21 17 14 12 10 8 8 7 8 9 11 11 10 10 10 9 8 8 8 9 9 10 12 12 13 13 16 19
21 17 19 21 21 19 17 18 18 20 22 23 23 25 23 20 15 12 10 7 7 7 7 8 9 8 7 8 8 9 9 8 7 7 8 10 11 14 15 16 16 17 19
25 19 20 22 22 20 21 21 22 26 28 27 24 24 24 20 15 11 9 8 7 5 7 9 10 7 5 6 7 8 9 10 10 10 12 13 15 12 10 10 9 7 7
26 26 26 25 27 27 28 27 28 30 28 27 25 25 23 20 16 13 11 10 10 10 11 11 12 11 10 9 8 8 10 6 4 4 4 2 2 3 4 5 5 6 8
21 24 26 30 28 27 26 30 32 29 28 27 25 22 20 18 16 13 11 11 13 15 15 15 15 14 13 11 10 8 6 5 4 1 2 3 2 3 3 3 4 5 6
Wind_Direction
248 245 242 240 243 244 243 236 230 233 239 225 225 223 229 222 208 215 211 218 221 220 220 219 222 231 238 239 241 250 241 244 252 236 233 232 229 155 165 151 170 181 186
248 246 241 234 229 218 226 220 223 234 230 219 215 224 205 204 215 207 212 213 209 213 213 222 223 222 229 233 235 229 228 246 244 234 223 202 181 164 153 165 168 172 178
235 226 227 214 207 207 214 220 218 204 202 205 209 201 194 195 196 194 195 202 211 216 217 215 217 223 232 234 238 217 223 234 238 219 193 178 174 171 176 167 169 170 171
227 225 213 198 202 208 206 191 191 193 200 194 180 176 187 186 180 185 205 223 214 210 216 218 223 232 231 230 216 212 217 217 188 186 180 171 174 168 178 176 170 170 172
209 204 197 194 196 187 179 184 175 171 167 164 168 174 169 169 175 175 182 188 203 220 225 228 233 229 230 222 209 206 210 203 183 184 179 169 173 170 180 180 173 166 167
194 188 189 186 179 179 172 166 161 158 157 153 154 162 168 169 176 186 204 216 235 244 241 237 232 227 220 213 196 208 220 210 193 186 184 180 182 184 180 179 172 159 154
199 202 190 177 173 167 171 165 160 153 153 160 160 166 175 187 198 211 222 240 248 246 233 229 220 208 207 203 188 189 200 213 225 208 201 196 194 189 181 179 174 172 167
208 200 176 173 159 159 158 156 153 151 155 161 174 184 180 188 209 224 231 236 234 226 223 214 198 195 191 202 192 189 192 199 204 212 230 248 218 192 193 188 180 174 173
199 182 163 162 159 156 154 153 158 166 166 169 168 177 195 208 211 215 219 212 209 200 191 185 184 195 187 195 195 193 190 191 195 205 216 227 213 213 194 182 178 180 175
179 159 158 161 158 158 161 164 158 164 170 173 173 188 198 205 207 206 199 198 195 184 186 177 175 195 194 182 188 200 198 197 198 205 200 189 190 187 182 188 188 186 187
154 152 152 152 152 158 160 160 159 168 169 174 181 189 192 191 196 182 181 189 204 206 188 181 176 175 176 169 181 199 202 204 198 206 180 180 186 187 185 191 197 198 197
147 148 154 163 163 165 161 157 169 176 180 179 187 188 181 178 174 176 178 168 174 183 165 168 176 165 174 171 164 184 195 191 178 174 173 179 184 187 189 189 195 203 214
155 161 158 165 167 167 162 165 174 180 189 186 187 186 176 174 182 194 172 170 173 180 176 183 186 166 168 170 177 183 191 192 180 176 176 178 182 186 186 190 196 206 212
166 162 160 165 161 161 167 171 178 179 178 180 180 180 175 176 180 170 176 176 171 172 175 165 162 164 166 177 180 185 189 192 190 188 186 187 185 184 180 183 194 207 214
160 164 162 156 162 166 169 171 172 170 179 174 160 149 181 178 167 174 176 173 168 164 164 161 163 166 171 173 176 180 184 188 185 191 191 187 188 194 193 196 202 197 197
156 160 158 161 167 169 169 166 167 171 168 162 142 101 162 151 158 161 163 173 181 178 171 163 159 157 163 168 172 176 182 179 181 184 183 188 192 191 198 188 196 196 198
158 161 166 168 170 172 173 170 165 168 171 169 152 143 149 154 151 150 152 145 155 160 163 163 165 165 167 170 176 184 183 176 178 184 187 183 187 193 205 210 205 197 197
162 168 170 173 175 177 180 180 179 175 164 147 139 142 146 141 137 132 128 138 145 149 153 158 166 165 169 176 181 188 175 178 182 185 186 186 190 199 199 189 196 192 189
159 166 170 176 181 180 178 184 188 176 158 151 148 143 140 132 125 121 126 127 124 126 127 124 132 140 148 155 162 165 168 169 175 181 186 185 188 184 173 174 183 199 212
144 146 153 158 162 167 165 164 168 164 158 152 152 147 144 141 129 117 115 116 114 114 112 114 119 124 129 138 142 143 151 159 160 163 165 168 169 167 173 180 198 213 240
143 143 150 150 154 152 156 161 162 162 161 158 152 149 147 141 129 122 113 117 115 114 112 115 134 137 137 137 131 131 136 141 148 159 169 174 188 201 213 237 253 262 272
152 151 153 149 147 149 150 158 164 165 162 154 150 148 147 148 146 137 132 124 109 118 117 113 114 132 142 151 152 154 150 148 163 176 190 209 233 247 255 266 278 279 277
144 141 144 145 141 141 143 154 160 156 150 147 149 151 157 162 159 151 145 143 145 145 142 134 143 148 152 162 172 176 189 195 212 222 233 246 254 261 267 267 267 269 272
147 144 138 139 140 140 141 142 145 146 146 150 154 160 165 169 171 168 157 149 152 160 157 160 160 168 171 175 200 210 207 215 218 224 239 251 266 279 248 259 249 250 261
164 160 153 145 146 147 149 152 156 155 155 156 159 163 169 176 174 165 154 148 148 145 140 143 142 140 139 140 136 134 126 118 111 116 130 165 238 242 233 234 250 271 276
161 165 166 159 160 158 165 166 159 156 155 157 160 163 165 167 163 157 146 134 133 133 130 126 120 118 112 107 106 116 124 129 136 182 131 153 139 103 68 42 14 358 349
Height
1365 1370 1377 1382 1386 1390 1392 1396 1400 1405 1406 1409 1414 1418 1420 1423 1426 1431 1434 1438 1440 1442 1445 1447 1449 1452 1453 1455 1457 1458 1459 1460 1461 1462 1464 1465 1465 1467 1469 1471 1476 1480 1483
1359 1363 1368 1373 1377 1381 1386 1391 1395 1398 1401 1406 1411 1414 1417 1421 1425 1429 1433 1436 1438 1440 1443 1445 1447 1449 1451 1453 1455 1456 1457 1457 1459 1460 1462 1464 1466 1468 1471 1473 1477 1481 1484
1354 1359 1363 1367 1372 1376 1382 1386 1390 1394 1398 1403 1407 1410 1415 1420 1424 1427 1431 1434 1437 1439 1441 1443 1445 1447 1449 1451 1453 1455 1456 1456 1457 1458 1460 1463 1466 1469 1472 1475 1478 1481 1484
1350 1355 1358 1364 1369 1374 1378 1382 1386 1391 1395 1400 1405 1410 1415 1420 1423 1427 1430 1433 1434 1436 1439 1441 1444 1445 1447 1449 1451 1454 1455 1456 1457 1458 1461 1463 1465 1469 1473 1475 1478 1482 1485
1347 1351 1356 1361 1367 1372 1376 1380 1384 1390 1395 1400 1405 1411 1415 1420 1423 1426 1429 1430 1432 1435 1437 1439 1442 1444 1446 1448 1450 1452 1454 1455 1457 1460 1461 1463 1466 1469 1472 1475 1478 1482 1486
1347 1351 1355 1360 1365 1371 1375 1379 1385 1390 1396 1401 1407 1411 1416 1420 1423 1425 1428 1429 1431 1433 1434 1436 1438 1441 1444 1446 1449 1451 1453 1454 1456 1459 1462 1463 1466 1470 1473 1475 1478 1482 1488
1347 1353 1354 1358 1363 1370 1377 1380 1386 1391 1397 1402 1408 1413 1416 1419 1422 1424 1426 1427 1429 1430 1431 1432 1435 1438 1442 1444 1447 1450 1452 1454 1457 1460 1461 1463 1466 1469 1472 1476 1479 1483 1486
1348 1350 1352 1358 1363 1371 1377 1382 1386 1392 1398 1403 1408 1412 1415 1418 1420 1422 1424 1425 1427 1428 1429 1430 1433 1436 1440 1443 1446 1448 1451 1453 1456 1460 1463 1465 1467 1469 1472 1476 1480 1485 1489
1346 1349 1351 1359 1366 1373 1378 1384 1389 1394 1400 1405 1409 1412 1415 1417 1419 1421 1422 1424 1426 1427 1428 1430 1433 1436 1437 1441 1444 1447 1450 1453 1456 1459 1463 1465 1468 1469 1471 1476 1480 1484 1488
1340 1345 1353 1362 1369 1374 1380 1385 1390 1396 1402 1405 1409 1412 1414 1416 1418 1420 1422 1424 1425 1427 1428 1431 1433 1436 1439 1441 1444 1447 1449 1452 1455 1457 1461 1464 1467 1470 1473 1477 1480 1483 1487
1338 1348 1358 1365 1371 1378 1383 1387 1392 1397 1402 1405 1409 1411 1414 1416 1418 1420 1422 1424 1425 1426 1429 1431 1434 1437 1440 1442 1446 1448 1451 1452 1454 1456 1460 1463 1467 1470 1474 1478 1482 1485 1488
1343 1353 1361 1367 1373 1379 1383 1389 1394 1399 1403 1405 1409 1411 1414 1416 1418 1420 1422 1424 1426 1427 1429 1432 1435 1438 1440 1443 1446 1449 1451 1452 1455 1457 1460 1463 1467 1470 1474 1478 1481 1485 1488
1348 1357 1362 1369 1374 1379 1384 1389 1395 1400 1402 1405 1409 1412 1414 1416 1418 1420 1422 1425 1427 1428 1431 1434 1436 1439 1442 1445 1448 1450 1452 1453 1456 1459 1461 1465 1468 1472 1475 1478 1481 1484 1487
1351 1358 1363 1369 1374 1380 1386 1391 1396 1398 1402 1406 1410 1412 1414 1416 1419 1421 1423 1425 1427 1428 1430 1433 1436 1439 1442 1445 1448 1450 1453 1455 1458 1460 1463 1466 1469 1472 1475 1478 1481 1483 1486
1352 1359 1365 1370 1376 1382 1388 1393 1396 1400 1405 1408 1411 1413 1414 1416 1419 1421 1424 1426 1428 1429 1431 1434 1437 1440 1442 1445 1448 1451 1454 1457 1459 1462 1465 1467 1470 1473 1475 1478 1479 1481 1485
1355 1361 1365 1371 1377 1384 1389 1393 1398 1403 1407 1410 1413 1415 1416 1418 1420 1422 1424 1427 1428 1430 1433 1434 1439 1442 1444 1447 1450 1453 1455 1457 1460 1463 1466 1468 1471 1473 1475 1476 1480 1482 1485
1356 1362 1368 1374 1380 1385 1389 1394 1398 1404 1408 1412 1414 1416 1417 1419 1421 1423 1425 1427 1430 1432 1434 1438 1440 1443 1446 1449 1452 1454 1456 1458 1461 1464 1466 1468 1471 1473 1475 1477 1480 1482 1484
1359 1365 1372 1377 1382 1386 1391 1395 1400 1403 1406 1412 1416 1418 1420 1422 1424 1426 1429 1431 1433 1435 1437 1440 1442 1445 1447 1450 1452 1454 1456 1458 1461 1463 1466 1469 1471 1473 1475 1476 1479 1482 1485
1364 1370 1375 1379 1383 1387 1391 1396 1401 1405 1408 1413 1417 1420 1422 1426 1429 1430 1433 1434 1436 1438 1440 1443 1446 1447 1449 1452 1453 1455 1457 1459 1461 1463 1466 1469 1471 1473 1476 1478 1481 1483 1484
1368 1372 1376 1381 1385 1389 1393 1397 1402 1407 1411 1415 1419 1422 1426 1430 1432 1435 1437 1439 1440 1442 1444 1446 1448 1449 1452 1453 1455 1457 1459 1461 1462 1465 1467 1470 1472 1475 1477 1479 1481 1483 1483
1372 1376 1379 1382 1387 1392 1396 1400 1405 1409 1413 1418 1422 1426 1431 1435 1436 1439 1441 1441 1444 1445 1446 1448 1450 1451 1454 1456 1458 1460 1461 1463 1465 1467 1469 1472 1474 1476 1478 1479 1480 1481 1481
1375 1378 1382 1386 1390 1395 1400 1404 1409 1412 1417 1421 1426 1430 1435 1438 1439 1442 1443 1445 1446 1448 1449 1450 1452 1454 1456 1458 1459 1461 1463 1466 1468 1469 1471 1473 1474 1476 1476 1477 1477 1477 1476
1379 1382 1385 1389 1394 1399 1403 1407 1411 1415 1420 1424 1429 1432 1436 1439 1442 1444 1446 1447 1449 1450 1452 1453 1454 1456 1458 1460 1461 1463 1464 1466 1467 1469 1470 1471 1473 1473 1473 1473 1473 1472 1471
1381 1385 1389 1393 1397 1402 1406 1410 1414 1418 1422 1426 1430 1434 1438 1441 1443 1445 1447 1449 1450 1451 1452 1454 1455 1457 1458 1460 1461 1462 1463 1464 1465 1467 1468 1468 1469 1468 1467 1469 1469 1468 1468
1382 1386 1391 1395 1399 1403 1407 1411 1415 1420 1424 1428 1432 1436 1439 1442 1445 1447 1449 1450 1451 1453 1454 1455 1457 1458 1460 1460 1461 1462 1462 1464 1465 1466 1466 1468 1468 1468 1468 1467 1467 1466 1466
1384 1388 1393 1397 1402 1406 1410 1413 1418 1422 1426 1430 1434 1438 1441 1444 1446 1449 1451 1452 1454 1455 1456 1458 1460 1461 1462 1463 1463 1463 1464 1464 1465 1466 1466 1466 1466 1467 1467 1466 1465 1465 1463